Flag for Canada Weather past 2 weeks in Vancouver, British Columbia, Canada

Now
63 °F

Mostly cloudy.


Feels Like: 63 °F
Forecast: 60 / 65 °F
Wind: 3 mph from South

Location: Vancouver International Air-Port

Current Time: Jul 22, 2014 at 11:32:28 PM

Latest Report: Jul 22, 2014 at 11:00 PM


Visibility: 20 mi

Pressure: 30.02 "Hg

Humidity: 83%

Dew point: 57 °F

Location of VancouverLocation

Historic Weather in Vancouver — Graph

°F

Vancouver temperature yesterday

Maximum temperature yesterday: 70 °F (at 1:00 PM)
Minimum temperature yesterday: 57 °F (at 5:00 AM)
Average temperature yesterday: 64 °F

Past Weeks' High & Low Weather Summary

 TemperatureHumidityPressure
High81 °F (Jul 14, 7:00 PM)100% (Jul 8, 5:00 AM)30.13 "Hg (Jul 8, 5:00 AM)
Low57 °F (Jul 15, 5:00 AM)45% (Jul 14, 7:00 PM)29.88 "Hg (Jul 10, 8:00 PM)
Average67 °F73%30.00 "Hg
* Reported Jul 7 10:00 PM — Jul 22 10:00 PM, Vancouver, Weather by CustomWeather, © 2014

Note: Actual official high and low records may vary slightly from our data, if they occured in-between our weather recording intervals... More about our weather records

Advertising

Vancouver weather history for previous 24 hours

 ConditionsComfort  
Time TempWeatherWind HumidityBarometerVisibility
10:00 PM
Jul 22
64 °FBroken clouds.3 mph78%30.02 "Hg20 mi
9:00 PM64 °FScattered clouds.6 mph73%30.02 "Hg20 mi
8:00 PM66 °FPartly sunny.9 mph68%30.03 "Hg20 mi
7:00 PM68 °FPartly sunny.10 mph64%30.03 "Hg20 mi
6:00 PM68 °FMostly cloudy.15 mph64%30.05 "Hg30 mi
5:00 PM68 °FMostly cloudy.14 mph64%30.05 "Hg30 mi
4:00 PM70 °FPartly sunny.13 mph60%30.06 "Hg30 mi
10:00 AM66 °FPartly sunny.9 mph64%30.03 "Hg30 mi
9:00 AM64 °FPartly sunny.8 mph73%30.03 "Hg30 mi
8:00 AM63 °FScattered clouds.10 mph73%30.02 "Hg30 mi
7:00 AM59 °FScattered clouds.8 mph82%30.02 "Hg30 mi
6:00 AM57 °FPassing clouds.8 mph82%30.01 "Hg15 mi
5:00 AM57 °FPassing clouds.10 mph88%30.01 "Hg15 mi
4:00 AM61 °FOvercast.7 mph77%30.00 "Hg15 mi
3:00 AM61 °FOvercast.9 mph77%30.00 "Hg15 mi
2:00 AM61 °FClear.8 mph72%30.00 "Hg15 mi
1:00 AM59 °FClear.9 mph77%29.99 "Hg15 mi
12:00 AM61 °FClear.8 mph72%29.99 "Hg15 mi
11:00 PM
Jul 21
63 °FClear.7 mph68%29.99 "Hg20 mi
Weather by CustomWeather, © 2014

See weather overviewHow to use our weather pages